Starlink 32273

operational
NORAD ID: 61956 Int'l Des: 2024-209 Owner: SPXS Country: US Constellation: starlink
LEOCIRCULAR

About Starlink 32273

Description loading...

Live Position

Loading 3D Globe...

Upcoming Passes

Altitude History

Altitude vs Time

uPlot chart will show altitude changes over time

Two-Line Element Set

1 61956U 24209T 25353.70983742 .00015591 00000-0 53721-3 0 9994
2 61956 53.1586 153.7560 0003348 95.5348 264.6035 15.30210056 62654
Epoch: Dec 19, 2025 • Age: 13 hours

Current Status

Altitude 475.9 km
Velocity 7.63 km/s
Sub-Earth Point -0.80°S, 147.23°E
Launch Date Nov 14, 2024
Age 1 years
Type internet

Technical Details

Classification Payload
Mass 730.00 kg
Dry Mass 700.00 kg
Total Mass 730.00 kg
Length 0.30 m
Diameter 4.10 m
Span 29.00 m
Shape Box + pan
Manufacturer SPXS
Bus Type Starlink V2M
Phase Status In Orbit
Owner/State SPXS/US

Large Constellations

Loading constellations...